Weather in Novohupalivka

Ukraine / Zaporizhia Region     48°01′25″N   35°25′04″E
temp.,
°C
wind,
m/s
gust,
m/s
humid.,
%
clouds,
%
prec.,
mm/h
press.,
hPa
HPBL,
m
31 july, sat
sat3100:00+22nw4870100 0.0 1009178
03:00+20nnw48720 0.0 1009146
06:00+19n37820 0.0 1010126
09:00+25n34590 0.0 1011479
12:00+28n33450 0.0 10111876
15:00+30n33390 0.0 10112140
18:00+29nne23400 0.0 10101989
21:00+25se01490 0.0 101111
1 august, sun
sun100:00+23sse22520 0.0 101111
03:00+22nnw22560 0.0 101213
06:00+21ne22620 0.0 101211
09:00+27ne12460 0.0 1012311
12:00+31w11351 0.0 10122360
15:00+32nw223112 0.0 10112670
18:00+32nnw213435 0.0 10111370
21:00+26nne11410 0.0 101111
2 august, mon
mon200:00+25sse11440 0.0 101111
03:00+24wsw22480 0.0 101114
06:00+23wnw00575 0.0 101211
09:00+28wsw22465 0.0 1012351
12:00+32wsw32342 0.0 10111598
15:00+34sw23300 0.0 10102403
18:00+32ssw45372 0.0 1009437
21:00+27s33401 0.0 100925
3 august, tue
tue300:00+25wsw46495 0.0 1010103
03:00+23w225723 0.0 101020
06:00+22w226692 0.0 101025
09:00+26wnw456013 0.0 1011610
12:00+28nw44551 0.0 10111193
15:00+30wnw554679 0.0 10111786
18:00+28wnw554860 0.0 1011862
21:00+23nnw49530 0.1 1013207
4 august, wed
wed400:00+22n6115390 0.0 1014346
03:00+20n48620 0.0 1015192
06:00+18ne36721 0.0 1016123
09:00+23nne345466 0.0 1017564
12:00+27nne334086 0.0 10172058
15:00+28n443518 0.0 10162555
18:00+27nne33359 0.0 10162218
21:00+23ne33420 0.0 101724